Location: ????? ?????????
(35.9745°N, 23.2468°E)
Time: 00:50:18
(UTC+00:00)

Daily predictions for brighter satellites

Satellite Brightness Start Highest point End
(mag) Time Altitude Azimuth Time Altitude Azimuth Time Altitude Azimuth
CZ-3 R/B 4.3 01:34:50 26° SSW 01:43:34 35° S 01:51:59 10° ESE
Chandra Rocket (1) 4.3 02:01:32 27° SE 02:01:32 27° SE 02:07:34 10° E
ACS3 Solar Sail 3.9 02:03:02 10° N 02:03:45 14° N 02:03:45 14° N
USA 234 4.3 02:03:57 10° E 02:09:51 37° NE 02:11:32 32° N
SL-16 R/B 4.0 02:22:34 10° S 02:24:49 24° S 02:24:49 24° S
Cosmos 1809 Rocket 4.4 02:29:34 10° S 02:35:40 79° E 02:41:46 10° N
ARGOS 4.3 02:32:01 10° N 02:34:50 32° N 02:34:50 32° N
NOSS 3-1 (C) 3.9 02:40:03 36° NNE 02:40:03 36° NNE 02:43:18 10° NNE
PAYLOAD A 4.1 02:34:16 10° NNE 02:39:40 82° ESE 02:40:26 65° S
CZ-2C R/B 3.8 02:39:56 10° N 02:42:20 29° N 02:42:20 29° N
Cosmos 2100 Rocket 4.5 02:44:48 10° N 02:50:52 59° E 02:56:57 10° SSE
Cosmos 2219 Rocket 4.0 02:55:06 17° NNW 02:55:06 17° NNW 02:56:40 10° N
NOSS 0 Rocket 4.2 02:49:39 10° S 02:55:42 66° ESE 03:01:48 10° NNE
COSMOS 2428 2.6 02:59:23 43° SW 03:01:15 71° WNW 03:06:56 10° NNE
IRS-1D 4.2 02:59:02 10° NNE 03:03:51 51° E 03:08:37 10° S
Cosmos 1340 Rocket 3.3 03:05:56 46° S 03:05:56 46° S 03:08:36 10° S
Cosmos 2322 3.8 03:08:00 48° W 03:08:48 52° WNW 03:14:20 10° NNE
Meteor 2-21 4.3 03:05:15 10° SSW 03:11:20 72° W 03:17:25 10° N
Cosmos 1459 Rocket 4.1 03:06:00 10° N 03:12:23 81° E 03:18:42 10° S
Cosmos 1727 Rocket 4.1 03:07:21 10° SSW 03:13:16 49° W 03:19:16 10° N
UNK 4.2 03:13:47 10° S 03:17:23 39° WSW 03:17:23 39° WSW
FengYun 1-2 T 4.1 03:13:04 10° NNE 03:18:39 84° WNW 03:24:15 10° SSW
USA 267 4.5 03:14:10 10° NNE 03:18:56 22° NNW 03:20:18 21° NW
Cosmos 1980 3.9 03:15:36 10° SSW 03:21:12 73° ESE 03:26:51 10° NNE
NOSS 3-1 (A) 2.6 03:19:34 25° SW 03:22:14 78° WNW 03:27:26 10° NNE
Cosmos 1725 Rocket 4.4 03:16:21 10° N 03:22:38 65° E 03:28:51 10° SSE
Intercosmos 25 Rocket 4.5 03:20:48 29° SW 03:22:50 44° WNW 03:29:43 10° N
Cosmos 1023 Rocket 4.4 03:19:15 10° NNW 03:24:20 80° ENE 03:29:22 10° SSE
Cosmos 1802 Rocket 4.1 03:24:01 10° N 03:30:24 84° E 03:36:39 10° S
Meteor 2-16 Rocket 4.3 03:27:53 10° S 03:33:58 80° W 03:40:06 10° N
Cosmos 1269 Rocket 3.9 03:29:40 10° NNW 03:34:56 75° WSW 03:40:11 10° S
Cosmos 1703 Rocket 3.5 03:32:44 10° SSW 03:36:59 57° W 03:41:17 10° N
Cosmos 2237 Rocket 2.1 03:31:48 10° SSW 03:37:28 88° WNW 03:43:10 10° NNE
Cosmos 2278 Rocket 2.9 03:32:35 10° NNW 03:38:08 55° ENE 03:43:38 10° SE
Cosmos 1328 4.0 03:35:11 10° SSW 03:38:34 38° W 03:41:59 10° N
Cosmos 2173 Rocket 4.0 03:35:39 10° NNW 03:41:31 53° W 03:47:23 10° SSW
Cosmos 921 Rocket 3.7 03:40:15 26° WNW 03:41:39 32° W 03:45:36 10° SSW
Cosmos 2292 Rocket 3.4 03:39:31 10° S 03:43:17 77° W 03:48:10 10° N
Meteor 1-24 Rocket 3.9 03:41:05 10° SSW 03:46:43 49° WNW 03:52:12 10° N
Cosmos 1939 Rocket 4.2 03:46:50 10° NNW 03:48:48 20° NW 03:48:48 20° NW
USA 234 3.3 03:46:07 10° SSE 03:52:35 63° SW 03:58:53 11° NW
Cosmos 2123 Rocket 4.3 03:48:57 10° SSW 03:54:49 44° W 04:00:43 10° N
Helios 1A Rocket 2.3 03:53:04 10° S 03:56:27 76° WSW 03:59:51 10° NNW
BlueWalker 3 2.6 03:53:51 13° NNW 03:56:54 47° NE 04:00:22 10° ESE
Meteor 2-5 Rocket 4.1 03:51:57 10° SSW 03:57:35 44° WNW 04:03:12 10° N
CZ-4 R/B 4.1 03:55:50 10° N 04:00:27 44° WNW 04:04:59 10° SW
Cosmos 1420 Rocket 4.0 03:56:06 10° SSW 04:01:19 82° WNW 04:06:38 10° NNE
USA 276 2.7 04:00:15 15° NNW 04:02:11 40° NE 04:04:54 10° ESE
Cosmos 1782 Rocket 3.5 04:00:03 10° N 04:04:26 83° W 04:08:47 10° S
NOAA 12 4.3 04:02:48 10° N 04:07:53 47° WNW 04:12:56 10° SW
Cosmos 44 Rocket 3.6 04:05:50 10° NW 04:10:51 55° WSW 04:15:52 10° SSE
Cosmos 2016 Rocket 4.2 04:06:42 10° NNW 04:12:51 52° W 04:18:56 10° SSW
Cosmos 2346 Rocket 4.4 04:07:46 10° S 04:13:57 82° W 04:20:07 10° N
Cosmos 1943 Rocket 2.1 04:09:31 10° NNW 04:15:00 68° WSW 04:20:26 10° S
Cosmos 1140 Rocket 4.3 04:18:19 10° NW 04:22:38 28° W 04:26:56 10° SSW
ATLAS CENTAUR Rocket 4.4 04:20:54 10° SSW 04:24:16 21° SE 04:30:18 10° E
SMAP 4.3 04:20:14 10° NNE 04:24:43 47° E 04:29:11 10° S
Cosmos 1300 Rocket 3.9 04:20:55 10° NNW 04:24:58 40° W 04:28:58 10° SSW
Timation 2 Rocket 4.3 04:18:51 10° NW 04:25:04 46° WSW 04:31:01 10° S
Cosmos 1812 4.0 04:25:43 10° NNE 04:28:24 32° E 04:31:04 10° SSE
Aureole 3 Rocket 4.1 04:23:55 10° N 04:28:39 69° E 04:35:16 10° SSE
Cosmos 2061 Rocket 4.1 04:26:52 10° NNW 04:32:53 55° W 04:38:53 10° SSW
